Hill City, KS

9:42 AM CST on December 18, 2017 (GMT -0600)
Hill City Municipal

Weather History for KHLC - December, 2012

Change the Weather History Date:

Friday, December 14, 2012

  Actual Average Record
Temperature  
Mean Temperature 34 °F 30 °F  
Max Temperature 54 °F 42 °F 65 °F (1977)
Min Temperature 14 °F 18 °F -10 °F (1963)
Degree Days  
Heating Degree Days 31    
Moisture  
Dew Point 35 °F    
Average Humidity 83    
Maximum Humidity 100    
Minimum Humidity 45    
Precipitation  
Precipitation 0.42 in 0.02 in 0.42 in (2012)
Month to date precipitation 0.42 0.44  
Year to date precipitation 10.16 22.67  
Sea Level Pressure  
Sea Level Pressure 29.70 in    
Wind  
Wind Speed 5 mph (SSE)    
Max Wind Speed 18 mph    
Max Gust Speed 24 mph    
Visibility 7 miles    
Events Rain    
T = Trace of Precipitation, MM = Missing Value Source: NWS Daily Summary

Daily Weather History Graph

Daily Weather History Graph

Search for Another Location

Airport or City:

Trip Planner

Search our weather history database for the weather conditions in past years. The results will help you decide how hot, cold, wet, or windy it might be!

Date:

Astronomy

Dec. 14, 2012 Rise Set
Actual Time 7:51 AM CST 5:16 PM CST
Civil Twilight 7:21 AM CST 5:46 PM CST
Nautical Twilight 6:47 AM CST 6:20 PM CST
Astronomical Twilight 6:15 AM CST 6:53 PM CST
Moon 8:58 AM CST (12/14) 7:10 PM CST (12/14)
Length of Visible Light 10h 25m
Length of Day
9h 24m
Waxing Crescent, 3% of the Moon is Illuminated
Dec 14
Waxing Crescent
Dec 19
First Quarter
Dec 28
Full
Jan 4
Last Quarter
Jan 11
New

Hourly Weather History & Observations

Time (CST) Temp. Windchill Dew Point Humidity Pressure Visibility Wind Dir Wind Speed Gust Speed Precip Events Conditions
12:53 AM 19.9 °F - 12.0 °F 71% 29.96 in 10.0 mi Calm Calm - N/A   Clear
1:53 AM 19.0 °F - 12.0 °F 74% 29.95 in 10.0 mi Calm Calm - N/A   Clear
2:53 AM 19.0 °F - 10.9 °F 71% 29.95 in 10.0 mi Calm Calm - N/A   Clear
3:53 AM 17.1 °F - 10.0 °F 74% 29.95 in 10.0 mi Calm Calm - N/A   Clear
4:53 AM 16.0 °F - 9.0 °F 74% 29.93 in 10.0 mi Calm Calm - N/A   Clear
5:53 AM 15.1 °F 7.7 °F 9.0 °F 77% 29.92 in 10.0 mi NNW 4.6 mph - N/A   Clear
6:53 AM 16.0 °F - 10.0 °F 77% 29.92 in 10.0 mi Calm Calm - N/A   Clear
7:53 AM 16.0 °F 10.4 °F 10.0 °F 77% 29.93 in 10.0 mi WNW 3.5 mph - N/A   Clear
8:53 AM 23.0 °F 18.4 °F 14.0 °F 68% 29.91 in 9.0 mi NW 3.5 mph - N/A   Clear
9:53 AM 32.0 °F 27.5 °F 17.1 °F 54% 29.91 in 10.0 mi WSW 4.6 mph - N/A   Clear
10:53 AM 37.9 °F - 18.0 °F 45% 29.88 in 10.0 mi Calm Calm - N/A   Clear
11:53 AM 46.9 °F - 28.9 °F 50% 29.84 in 10.0 mi South 13.8 mph - N/A   Clear
12:53 PM 50.0 °F - 35.1 °F 57% 29.79 in 10.0 mi South 12.7 mph - N/A   Partly Cloudy
1:53 PM 53.1 °F - 39.0 °F 59% 29.73 in 10.0 mi South 10.4 mph - N/A   Mostly Cloudy
2:53 PM 53.1 °F - 42.1 °F 66% 29.73 in 10.0 mi SSW 17.3 mph 24.2 mph N/A   Overcast
3:00 PM 51.8 °F - 42.8 °F 71% 29.69 in 10.0 mi South 12.7 mph 24.2 mph N/A   Overcast
3:53 PM 51.1 °F - 45.0 °F 80% 29.70 in 10.0 mi South 4.6 mph - 0.00 in   Overcast
4:15 PM 48.2 °F - 46.4 °F 93% 29.68 in 2.0 mi South 5.8 mph - 0.03 in Rain Rain
4:29 PM 48.2 °F - 46.4 °F 93% 29.66 in 3.0 mi SE 5.8 mph - 0.05 in Rain Light Rain
4:40 PM 48.2 °F - 46.4 °F 93% 29.65 in 2.5 mi SE 8.1 mph - N/A Rain Rain
4:53 PM 48.0 °F - 46.9 °F 96% 29.69 in 4.0 mi SE 9.2 mph - 0.09 in Rain Light Rain
5:53 PM 48.0 °F - 46.9 °F 96% 29.66 in 3.0 mi SE 5.8 mph - 0.03 in Rain Light Rain
6:00 PM 48.2 °F - 46.4 °F 93% 29.60 in 4.0 mi East 6.9 mph - 0.00 in Rain Light Rain
6:10 PM 46.4 °F 41.9 °F 46.4 °F 100% 29.59 in 4.0 mi ESE 9.2 mph - 0.00 in Rain Light Rain
6:53 PM 48.0 °F - 46.9 °F 96% 29.63 in 8.0 mi SE 11.5 mph 18.4 mph 0.00 in   Overcast
7:22 PM 46.4 °F 40.4 °F 46.4 °F 100% 29.57 in 2.5 mi SSE 13.8 mph - N/A   Overcast
7:53 PM 48.0 °F - 46.9 °F 96% 29.60 in 7.0 mi SSE 12.7 mph - N/A   Overcast
8:53 PM 48.0 °F - 46.9 °F 96% 29.54 in 5.0 mi SSE 18.4 mph 24.2 mph 0.01 in   Overcast
9:18 PM 46.4 °F 41.1 °F 46.4 °F 100% 29.48 in 5.0 mi SE 11.5 mph - 0.03 in Rain Light Rain
9:30 PM 46.4 °F 41.1 °F 46.4 °F 100% 29.47 in 2.5 mi SE 11.5 mph - 0.06 in Rain Rain
9:37 PM 46.4 °F 41.9 °F 46.4 °F 100% 29.47 in 3.0 mi ESE 9.2 mph - 0.09 in Rain Rain
9:53 PM 46.9 °F - 46.9 °F 100% 29.47 in 4.0 mi ESE 10.4 mph - 0.14 in Rain Rain
10:07 PM 48.2 °F - 46.4 °F 93% 29.43 in 7.0 mi East 10.4 mph - 0.01 in Rain Light Rain
10:53 PM 46.9 °F - 46.9 °F 100% 29.44 in 3.0 mi ESE 6.9 mph - 0.06 in Rain Rain
11:18 PM 46.4 °F 41.5 °F 46.4 °F 100% 29.41 in 5.0 mi ESE 10.4 mph - 0.03 in Rain Light Rain
11:53 PM 46.0 °F 42.5 °F 46.0 °F 100% 29.40 in 3.0 mi ESE 6.9 mph - 0.08 in Rain Rain